This is the latest recevied weather packets stored in our database for station/object KO4RJX-11. If no packets are shown the sender has not sent any weather packets the latest 10 day(s).
| Time | Temp. | Humidity | Pressure | Rain* | Wind** | Luminosity | Snow |
|---|---|---|---|---|---|---|---|
| 1777785594 | 9.44° C | 93% | 1009.3 hPa | 0 mm | - | - | - |
| 1777785325 | 9.44° C | 95% | 1009.3 hPa | 0 mm | - | - | - |
| 1777783993 | 9.44° C | 96% | 1009.3 hPa | 0 mm | - | - | - |
| 1777782394 | 9.44° C | 98% | 1009.3 hPa | 0 mm | - | - | - |
| 1777781193 | 9.44° C | 98% | 1009.3 hPa | 0 mm | - | - | - |
| 1777777593 | 9.44° C | 100% | 1009 hPa | 17.27 mm | - | - | - |
| 1777775993 | 10° C | 99% | 1008.6 hPa | 17.27 mm | - | - | - |
| 1777774393 | 10° C | 99% | 1009 hPa | 17.27 mm | - | - | - |
| 1777773593 | 10° C | 100% | 1009 hPa | 17.27 mm | - | - | - |
| 1777772393 | 10° C | 100% | 1008.6 hPa | 17.27 mm | - | - | - |
| 1777772125 | 10° C | 100% | 1008.6 hPa | 17.27 mm | - | - | - |
| 1777771593 | 10° C | 100% | 1008.3 hPa | 17.27 mm | - | - | - |
| 1777770793 | 10.56° C | 100% | 1007.9 hPa | 17.27 mm | - | - | - |
| 1777768793 | 11.11° C | 99% | 1007.6 hPa | 17.27 mm | - | - | - |
| 1777767193 | 11.11° C | 98% | 1007.3 hPa | 17.27 mm | - | - | - |
| 1777763593 | 11.67° C | 94% | 1006.9 hPa | 17.27 mm | - | - | - |
| 1777761194 | 12.22° C | 90% | 1006.9 hPa | 17.27 mm | - | - | - |
| 1777757194 | 11.67° C | 88% | 1006.6 hPa | 17.27 mm | - | - | - |
| 1777755993 | 11.67° C | 84% | 1006.6 hPa | 17.27 mm | - | - | - |
| 1777755593 | 11.67° C | 82% | 1006.6 hPa | 17.27 mm | - | - | - |
| 1777750793 | 11.67° C | 89% | 1006.9 hPa | 17.27 mm | - | - | - |
| 1777747193 | 11.11° C | 94% | 1007.3 hPa | 17.02 mm | - | - | - |
| 1777744393 | 10.56° C | 96% | 1007.6 hPa | 16.26 mm | - | - | - |
| 1777740793 | 10.56° C | 97% | 1007.9 hPa | 15.75 mm | - | - | - |
| 1777738123 | 10.56° C | 96% | 1008.6 hPa | 12.95 mm | - | - | - |
* Rain since midnight (hover to see other rain measurements)
** Current wind speed in m/s (hover to see current wind gust speed)